Salem, OR

1:34 PM PST on January 23, 2017 (GMT -0800)
McNary

Weather History for KSLE - November, 2013

Change the Weather History Date:

Thursday, November 28, 2013

  Actual Average Record
Temperature  
Mean Temperature 40 °F 43 °F  
Max Temperature 52 °F 49 °F 65 °F (1917)
Min Temperature 28 °F 36 °F 14 °F (1896)
Degree Days  
Heating Degree Days 25 22  
Month to date heating degree days 526 538  
Since 1 July heating degree days 996 1070  
Cooling Degree Days 0 0  
Month to date cooling degree days 0 0  
Year to date cooling degree days 502 290  
Moisture  
Dew Point 31 °F    
Average Humidity 75    
Maximum Humidity 100    
Minimum Humidity 50    
Precipitation  
Precipitation 0.00 in 0.24 in 1.88 in (2001)
Month to date precipitation 2.68 5.99  
Year to date precipitation 22.32 32.30  
Snow  
Snow 0.00 in - - ()
Month to date snowfall 0.0  
Snow Depth 0.00 in    
Sea Level Pressure  
Sea Level Pressure 30.11 in    
Wind  
Wind Speed 1 mph (SW)    
Max Wind Speed 7 mph    
Max Gust Speed 8 mph    
Visibility 9 miles    
Events      
T = Trace of Precipitation, MM = Missing Value Source: NWS Daily Summary

Daily Weather History Graph

Daily Weather History Graph

Search for Another Location

Airport or City:

Trip Planner

Search our weather history database for the weather conditions in past years. The results will help you decide how hot, cold, wet, or windy it might be!

Date:

Astronomy

Nov. 28, 2013 Rise Set
Actual Time 7:26 AM PST 4:33 PM PST
Civil Twilight 6:53 AM PST 5:06 PM PST
Nautical Twilight 6:17 AM PST 5:42 PM PST
Astronomical Twilight 5:42 AM PST 6:17 PM PST
Moon 2:23 AM PST (11/28) 1:55 PM PST (11/28)
Length of Visible Light 10h 12m
Length of Day
9h 06m
Waning Crescent, 21% of the Moon is Illuminated
Nov 28
Waning Crescent
Dec 2
New
Dec 9
First Quarter
Dec 17
Full
Dec 25
Last Quarter

Hourly Weather History & Observations

Time (PST) Temp. Windchill Dew Point Humidity Pressure Visibility Wind Dir Wind Speed Gust Speed Precip Events Conditions
12:56 AM 33.1 °F - 30.0 °F 89% 30.03 in 8.0 mi Calm Calm - N/A   Clear
1:56 AM 30.9 °F - 30.0 °F 96% 30.03 in 7.0 mi Calm Calm - N/A   Clear
2:56 AM 30.9 °F - 28.9 °F 92% 30.04 in 9.0 mi Calm Calm - N/A   Clear
3:56 AM 30.9 °F - 28.9 °F 92% 30.05 in 8.0 mi Calm Calm - N/A   Clear
4:56 AM 28.9 °F - 28.0 °F 96% 30.06 in 5.0 mi Calm Calm - N/A   Clear
5:56 AM 30.0 °F - 28.0 °F 92% 30.07 in 8.0 mi Calm Calm - N/A   Clear
6:56 AM 30.0 °F - 28.0 °F 92% 30.08 in 7.0 mi Calm Calm - N/A   Clear
7:56 AM 28.9 °F 23.9 °F 28.0 °F 96% 30.10 in 5.0 mi SE 4.6 mph - N/A   Clear
8:56 AM 34.0 °F - 32.0 °F 92% 30.12 in 10.0 mi Calm Calm - N/A   Clear
9:56 AM 43.0 °F - 33.1 °F 68% 30.12 in 10.0 mi Calm Calm - N/A   Clear
10:56 AM 46.0 °F 44.8 °F 30.9 °F 56% 30.12 in 10.0 mi WNW 3.5 mph - N/A   Clear
11:56 AM 48.0 °F - 32.0 °F 54% 30.11 in 10.0 mi NW 4.6 mph - N/A   Clear
12:56 PM 50.0 °F - 32.0 °F 50% 30.10 in 10.0 mi North 4.6 mph - N/A   Clear
1:56 PM 51.1 °F - 33.1 °F 50% 30.10 in 10.0 mi Calm Calm - N/A   Clear
2:56 PM 51.1 °F - 34.0 °F 52% 30.10 in 10.0 mi Calm Calm - N/A   Clear
3:56 PM 50.0 °F - 34.0 °F 54% 30.11 in 10.0 mi Calm Calm - N/A   Clear
4:56 PM 43.0 °F - 34.0 °F 71% 30.12 in 10.0 mi Calm Calm - N/A   Clear
5:56 PM 39.0 °F 36.8 °F 32.0 °F 76% 30.13 in 10.0 mi South 3.5 mph - N/A   Clear
6:56 PM 37.0 °F 34.5 °F 32.0 °F 82% 30.14 in 10.0 mi South 3.5 mph - N/A   Clear
7:56 PM 36.0 °F - 32.0 °F 86% 30.16 in 10.0 mi Calm Calm - N/A   Clear
8:56 PM 34.0 °F - 30.9 °F 89% 30.16 in 9.0 mi Calm Calm - N/A   Clear
9:56 PM 32.0 °F 27.5 °F 30.0 °F 92% 30.18 in 8.0 mi SSE 4.6 mph - N/A   Clear
10:56 PM 33.1 °F - 30.0 °F 89% 30.19 in 8.0 mi Calm Calm - N/A   Clear
11:56 PM 32.0 °F 28.7 °F 30.0 °F 92% 30.21 in 7.0 mi WNW 3.5 mph - N/A   Clear